TimeCDT,TemperatureF,Dew PointF,Humidity,Sea Level PressureIn,VisibilityMPH,Wind Direction,Wind SpeedMPH,Gust SpeedMPH,PrecipitationIn,Events,Conditions,WindDirDegrees,DateUTC
12:15 AM,33.8,32.0,93,29.87,3.0,NNW,12.7,18.4,N/A,,Overcast,340,2013-03-16 05:15:00
12:35 AM,33.8,30.2,87,29.89,4.0,NNW,13.8,18.4,N/A,,Overcast,330,2013-03-16 05:35:00
12:55 AM,33.8,30.2,87,29.88,5.0,NNW,12.7,-,N/A,,Overcast,340,2013-03-16 05:55:00
1:15 AM,33.8,30.2,87,29.89,5.0,NNW,12.7,19.6,N/A,,Overcast,330,2013-03-16 06:15:00
1:35 AM,33.8,30.2,87,29.89,3.0,NNW,15.0,18.4,N/A,,Overcast,340,2013-03-16 06:35:00
1:55 AM,33.8,28.4,81,29.91,7.0,NNW,15.0,20.7,N/A,,Overcast,340,2013-03-16 06:55:00
2:15 AM,32.0,28.4,87,29.92,10.0,NNW,11.5,18.4,N/A,,Overcast,330,2013-03-16 07:15:00
2:35 AM,32.0,28.4,87,29.92,10.0,NNW,11.5,-,N/A,,Overcast,330,2013-03-16 07:35:00
2:55 AM,32.0,26.6,80,29.94,10.0,NW,13.8,23.0,N/A,,Overcast,320,2013-03-16 07:55:00
3:15 AM,30.2,26.6,86,29.95,10.0,NW,16.1,19.6,N/A,,Overcast,320,2013-03-16 08:15:00
3:35 AM,30.2,26.6,86,29.96,10.0,NNW,15.0,-,N/A,,Overcast,330,2013-03-16 08:35:00
3:55 AM,30.2,26.6,86,29.96,10.0,NW,15.0,21.9,N/A,,Overcast,320,2013-03-16 08:55:00
4:15 AM,30.2,26.6,86,29.97,10.0,NNW,15.0,25.3,N/A,,Overcast,340,2013-03-16 09:15:00
4:35 AM,30.2,24.8,80,29.98,10.0,North,17.3,25.3,N/A,,Overcast,350,2013-03-16 09:35:00
4:55 AM,28.4,24.8,86,29.98,10.0,NNW,16.1,21.9,N/A,,Overcast,340,2013-03-16 09:55:00
5:15 AM,28.4,24.8,86,29.99,10.0,NNW,16.1,21.9,N/A,,Overcast,340,2013-03-16 10:15:00
5:35 AM,26.6,24.8,93,30.01,10.0,NNW,13.8,21.9,N/A,,Overcast,340,2013-03-16 10:35:00
5:55 AM,28.4,24.8,86,30.03,10.0,NNW,15.0,-,N/A,,Overcast,340,2013-03-16 10:55:00
6:15 AM,26.6,23.0,86,30.04,10.0,NNW,15.0,24.2,N/A,,Overcast,340,2013-03-16 11:15:00
6:35 AM,26.6,21.2,80,30.05,10.0,North,15.0,23.0,N/A,,Overcast,350,2013-03-16 11:35:00
6:55 AM,26.6,21.2,80,30.06,10.0,North,16.1,19.6,N/A,,Overcast,350,2013-03-16 11:55:00
7:15 AM,26.6,21.2,80,30.07,10.0,North,13.8,-,N/A,,Overcast,350,2013-03-16 12:15:00
7:35 AM,26.6,21.2,80,30.08,10.0,North,13.8,-,N/A,,Overcast,350,2013-03-16 12:35:00
7:55 AM,26.6,21.2,80,30.09,10.0,North,15.0,19.6,N/A,,Overcast,350,2013-03-16 12:55:00
8:15 AM,24.8,21.2,86,30.09,10.0,North,13.8,20.7,N/A,,Overcast,360,2013-03-16 13:15:00
8:35 AM,24.8,19.4,80,30.10,10.0,NNW,15.0,20.7,N/A,,Overcast,340,2013-03-16 13:35:00
8:55 AM,24.8,19.4,80,30.10,10.0,North,15.0,-,N/A,,Overcast,350,2013-03-16 13:55:00
9:15 AM,24.8,19.4,80,30.10,10.0,North,12.7,20.7,N/A,,Overcast,350,2013-03-16 14:15:00
9:35 AM,24.8,19.4,80,30.11,10.0,North,9.2,19.6,N/A,,Overcast,360,2013-03-16 14:35:00
9:55 AM,24.8,19.4,80,30.10,10.0,North,12.7,19.6,N/A,,Overcast,10,2013-03-16 14:55:00
10:15 AM,24.8,19.4,80,30.11,10.0,North,12.7,18.4,N/A,,Overcast,10,2013-03-16 15:15:00
10:35 AM,24.8,17.6,74,30.11,10.0,North,10.4,16.1,N/A,,Overcast,10,2013-03-16 15:35:00
10:55 AM,24.8,17.6,74,30.12,10.0,North,8.1,17.3,N/A,,Overcast,10,2013-03-16 15:55:00
11:15 AM,24.8,17.6,74,30.13,10.0,North,9.2,-,N/A,,Overcast,360,2013-03-16 16:15:00
11:35 AM,24.8,17.6,74,30.13,10.0,North,8.1,-,N/A,,Overcast,360,2013-03-16 16:35:00
11:55 AM,24.8,17.6,74,30.14,10.0,North,11.5,16.1,N/A,,Overcast,350,2013-03-16 16:55:00
12:15 PM,26.6,17.6,69,30.14,10.0,North,10.4,-,N/A,,Overcast,360,2013-03-16 17:15:00
12:35 PM,26.6,17.6,69,30.14,10.0,NNE,9.2,-,N/A,,Overcast,20,2013-03-16 17:35:00
12:55 PM,26.6,17.6,69,30.14,10.0,North,10.4,-,N/A,,Mostly Cloudy,10,2013-03-16 17:55:00
1:15 PM,28.4,19.4,69,30.13,10.0,North,9.2,-,N/A,,Mostly Cloudy,360,2013-03-16 18:15:00
1:35 PM,26.6,19.4,74,30.12,10.0,North,11.5,16.1,N/A,,Mostly Cloudy,360,2013-03-16 18:35:00
1:55 PM,28.4,19.4,69,30.12,10.0,North,9.2,16.1,N/A,,Mostly Cloudy,10,2013-03-16 18:55:00
2:15 PM,28.4,17.6,64,30.11,10.0,North,6.9,16.1,N/A,,Mostly Cloudy,10,2013-03-16 19:15:00
2:35 PM,28.4,17.6,64,30.12,10.0,North,4.6,-,N/A,,Overcast,350,2013-03-16 19:35:00
2:55 PM,28.4,19.4,69,30.11,10.0,Calm,Calm,-,N/A,,Overcast,0,2013-03-16 19:55:00
3:15 PM,28.4,19.4,69,30.10,10.0,North,6.9,-,N/A,,Overcast,350,2013-03-16 20:15:00
3:35 PM,28.4,19.4,69,30.10,10.0,North,8.1,-,N/A,,Overcast,350,2013-03-16 20:35:00
3:55 PM,28.4,19.4,69,30.10,10.0,NNE,6.9,-,N/A,,Mostly Cloudy,30,2013-03-16 20:55:00
4:15 PM,28.4,19.4,69,30.10,10.0,NNE,9.2,-,N/A,,Overcast,20,2013-03-16 21:15:00
4:35 PM,28.4,19.4,69,30.11,10.0,NNE,8.1,-,N/A,,Overcast,30,2013-03-16 21:35:00
4:55 PM,28.4,19.4,69,30.11,10.0,North,8.1,-,N/A,,Mostly Cloudy,10,2013-03-16 21:55:00
5:15 PM,28.4,19.4,69,30.11,10.0,NNE,5.8,-,N/A,,Mostly Cloudy,20,2013-03-16 22:15:00
5:35 PM,28.4,17.6,64,30.11,10.0,North,4.6,-,N/A,,Overcast,360,2013-03-16 22:35:00
5:55 PM,28.4,19.4,69,30.11,10.0,North,6.9,-,N/A,,Overcast,10,2013-03-16 22:55:00
6:15 PM,28.4,17.6,64,30.11,10.0,North,9.2,-,N/A,,Mostly Cloudy,10,2013-03-16 23:15:00
6:35 PM,28.4,19.4,69,30.11,10.0,NNE,6.9,-,N/A,,Overcast,30,2013-03-16 23:35:00
6:55 PM,26.6,17.6,69,30.11,10.0,North,9.2,-,N/A,,Overcast,10,2013-03-16 23:55:00
7:15 PM,26.6,17.6,69,30.11,10.0,NNE,9.2,-,N/A,,Overcast,20,2013-03-17 00:15:00
7:35 PM,26.6,17.6,69,30.13,10.0,NNE,6.9,-,N/A,,Overcast,30,2013-03-17 00:35:00
7:55 PM,26.6,17.6,69,30.14,10.0,NNE,8.1,-,N/A,,Overcast,30,2013-03-17 00:55:00
8:15 PM,26.6,17.6,69,30.16,10.0,North,8.1,-,N/A,,Overcast,360,2013-03-17 01:15:00
8:35 PM,24.8,17.6,74,30.17,10.0,North,4.6,-,N/A,,Overcast,10,2013-03-17 01:35:00
8:55 PM,24.8,17.6,74,30.18,10.0,North,6.9,-,N/A,,Overcast,360,2013-03-17 01:55:00
9:15 PM,24.8,15.8,69,30.18,10.0,North,6.9,-,N/A,,Mostly Cloudy,10,2013-03-17 02:15:00
9:35 PM,24.8,15.8,69,30.19,10.0,NNE,8.1,-,N/A,,Scattered Clouds,30,2013-03-17 02:35:00
9:55 PM,24.8,15.8,69,30.19,10.0,NNE,8.1,-,N/A,,Scattered Clouds,30,2013-03-17 02:55:00
10:15 PM,23.0,15.8,74,30.19,10.0,NNE,8.1,-,N/A,,Scattered Clouds,20,2013-03-17 03:15:00
10:35 PM,23.0,15.8,74,30.19,10.0,NE,5.8,-,N/A,,Scattered Clouds,40,2013-03-17 03:35:00
10:55 PM,21.2,15.8,80,30.20,10.0,NE,6.9,-,N/A,,Scattered Clouds,40,2013-03-17 03:55:00
11:15 PM,21.2,15.8,80,30.19,10.0,NE,6.9,-,N/A,,Scattered Clouds,40,2013-03-17 04:15:00
11:35 PM,21.2,15.8,80,30.19,10.0,ENE,6.9,-,N/A,,Clear,60,2013-03-17 04:35:00
11:55 PM,21.2,12.2,68,30.20,10.0,NE,5.8,-,N/A,,Clear,50,2013-03-17 04:55:00